TimeCDT,TemperatureF,Dew PointF,Humidity,Sea Level PressureIn,VisibilityMPH,Wind Direction,Wind SpeedMPH,Gust SpeedMPH,PrecipitationIn,Events,Conditions,WindDirDegrees,DateUTC
12:56 AM,72.9,70.0,91,30.31,10.0,Calm,Calm,-,N/A,,Clear,0,2013-07-16 05:56:00
1:56 AM,72.0,70.0,93,30.31,10.0,Calm,Calm,-,N/A,,Clear,0,2013-07-16 06:56:00
2:56 AM,72.0,70.0,93,30.31,10.0,Calm,Calm,-,N/A,,Clear,0,2013-07-16 07:56:00
3:56 AM,70.9,70.0,97,30.31,10.0,Calm,Calm,-,N/A,,Clear,0,2013-07-16 08:56:00
4:56 AM,70.0,70.0,100,30.31,10.0,Calm,Calm,-,N/A,,Clear,0,2013-07-16 09:56:00
5:56 AM,68.9,68.9,100,30.32,9.0,Calm,Calm,-,N/A,,Clear,0,2013-07-16 10:56:00
6:56 AM,70.9,70.9,100,30.34,10.0,Calm,Calm,-,N/A,,Scattered Clouds,0,2013-07-16 11:56:00
7:14 AM,71.6,71.6,100,30.31,10.0,Calm,Calm,-,N/A,,Mostly Cloudy,0,2013-07-16 12:14:00
7:22 AM,73.4,71.6,94,30.31,10.0,Calm,Calm,-,N/A,,Partly Cloudy,0,2013-07-16 12:22:00
7:45 AM,73.4,71.6,94,30.32,10.0,East,5.8,-,N/A,,Partly Cloudy,100,2013-07-16 12:45:00
7:56 AM,74.8,70.9,87,30.35,10.0,Calm,Calm,-,N/A,,Scattered Clouds,0,2013-07-16 12:56:00
8:56 AM,77.0,70.9,81,30.37,10.0,ESE,10.4,-,N/A,,Mostly Cloudy,120,2013-07-16 13:56:00
9:08 AM,78.8,71.6,78,30.34,10.0,ESE,8.1,-,N/A,,Mostly Cloudy,120,2013-07-16 14:08:00
9:56 AM,79.0,70.9,76,30.37,10.0,Variable,4.6,-,N/A,,Mostly Cloudy,0,2013-07-16 14:56:00
10:18 AM,80.6,71.6,74,30.34,10.0,ESE,8.1,-,N/A,,Scattered Clouds,110,2013-07-16 15:18:00
10:42 AM,80.6,71.6,74,30.34,10.0,Variable,6.9,-,N/A,,Mostly Cloudy,0,2013-07-16 15:42:00
10:56 AM,81.0,70.9,71,30.37,10.0,East,8.1,-,N/A,,Mostly Cloudy,100,2013-07-16 15:56:00
11:56 AM,82.9,70.9,67,30.37,10.0,Calm,Calm,-,N/A,,Mostly Cloudy,0,2013-07-16 16:56:00
12:10 PM,84.2,71.6,66,30.34,10.0,Variable,4.6,-,N/A,,Scattered Clouds,0,2013-07-16 17:10:00
12:56 PM,84.9,70.9,63,30.35,10.0,East,5.8,-,N/A,,Mostly Cloudy,80,2013-07-16 17:56:00
1:56 PM,86.0,70.9,60,30.35,10.0,East,9.2,-,N/A,,Partly Cloudy,90,2013-07-16 18:56:00
2:56 PM,88.0,70.9,57,30.33,10.0,SSE,6.9,-,N/A,,Partly Cloudy,150,2013-07-16 19:56:00
3:56 PM,88.0,70.9,57,30.32,10.0,Calm,Calm,-,N/A,,Partly Cloudy,0,2013-07-16 20:56:00
4:56 PM,88.0,70.0,55,30.31,10.0,Calm,Calm,-,N/A,,Scattered Clouds,0,2013-07-16 21:56:00
5:56 PM,86.9,72.0,61,30.31,10.0,Calm,Calm,-,N/A,,Partly Cloudy,0,2013-07-16 22:56:00
6:56 PM,86.0,72.9,65,30.30,10.0,Calm,Calm,-,N/A,,Partly Cloudy,0,2013-07-16 23:56:00
7:56 PM,79.9,73.9,82,30.31,10.0,Calm,Calm,-,N/A,,Clear,0,2013-07-17 00:56:00
8:56 PM,75.9,73.9,94,30.33,10.0,Calm,Calm,-,N/A,,Clear,0,2013-07-17 01:56:00
9:56 PM,72.9,72.9,100,30.35,8.0,Calm,Calm,-,N/A,,Clear,0,2013-07-17 02:56:00
10:56 PM,72.9,72.9,100,30.36,7.0,Calm,Calm,-,N/A,,Clear,0,2013-07-17 03:56:00
11:56 PM,72.0,72.0,100,30.36,5.0,Calm,Calm,-,N/A,,Clear,0,2013-07-17 04:56:00